Regional Weather Roundup
Issued by NWS

Home | Current Version | Previous Version | Graphics & Text | Print | Product List | Glossary On
Versions: 1 2 3 4 5 6 7 8 9 10 11 12 13 14 15 16 17 18 19 20 21 22 23 24 25 26 27 28 29 30 31 32 33 34 35 36 37 38 39 40 41 42 43 44 45 46 47 48 49 50
000
ASUS43 KLMK 011010
RWRKY
KENTUCKY REGIONAL WEATHER ROUNDUP
NATIONAL WEATHER SERVICE LOUISVILLE KY
600 AM EDT SAT AUG 01 2015

NOTE "FAIR" INDICATES FEW OR NO CLOUDS BELOW 12,000 FEET
WITH NO SIGNIFICANT WEATHER AND/OR OBSTRUCTIONS TO VISIBILITY.

KYZ001>023-026-027-061>063-070>075-011100-
WESTERN AND SOUTH CENTRAL KENTUCKY

CITY           SKY/WX    TMP DP  RH WIND       PRES   REMARKS
PADUCAH        CLEAR     68  66  93 CALM      30.00F
HENDERSON      CLEAR     66  64  94 CALM      29.99F
OWENSBORO      CLEAR     71  69  93 NW5       30.00S
HOPKINSVILLE   CLEAR     69  66  92 SW2       30.00F
BOWLING GREEN  CLEAR     67  64  90 CALM      30.01S
GLASGOW        CLEAR    N/A N/A N/A CALM      30.01S HAZE
$$

KYZ024-025-028>034-038-045-046-053-011100-
NORTH CENTRAL KENTUCKY

CITY           SKY/WX    TMP DP  RH WIND       PRES   REMARKS
LOUISVILLE/SDF PTCLDY    73  65  75 CALM      29.98F
LOUISVILLE/LOU CLEAR     68  63  84 CALM      29.99F
FORT KNOX      CLEAR     67  65  93 W6        29.98S
$$

KYZ035>037-039>044-047>052-055>060-089>105-011100-
NORTHEAST KENTUCKY

CITY           SKY/WX    TMP DP  RH WIND       PRES   REMARKS
LEXINGTON      CLEAR     66  61  84 CALM      30.00S
COVINGTON      PTCLDY    64  61  90 CALM      29.98F
FRANKFORT      CLEAR     64  60  87 NW3       29.99S
$$

KYZ054-064>069-076>088-106>120-011100-
SOUTHEAST KENTUCKY

CITY           SKY/WX    TMP DP  RH WIND       PRES   REMARKS
JACKSON        CLEAR     63  60  90 CALM      30.02S
LONDON         CLEAR     63  58  83 CALM      30.03F
SOMERSET       MOCLDY    61  61 100 CALM      30.04S
MIDDLESBORO    PTCLDY    59  59 100 CALM      30.06S
MONTICELLO     SUNNY     61  61 100 CALM      30.05F
$$




USA.gov is the U.S. government's official web portal to all federal, state and local government web resources and services.